This is the latest recevied weather packets stored in our database for station/object KI5RAB. If no packets are shown the sender has not sent any weather packets the latest 10 day(s).
| Time | Temp. | Humidity | Pressure | Rain* | Wind** | Luminosity | Snow |
|---|---|---|---|---|---|---|---|
| 1777335897 | 30° C | 73% | 1011.7 hPa | 0 mm | - | 36 W/m² | - |
| 1777335594 | 30° C | 72% | 1011.7 hPa | 0 mm | - | 46 W/m² | - |
| 1777335291 | 30.56° C | 72% | 1011.7 hPa | 0 mm | - | 49 W/m² | - |
| 1777334989 | 30.56° C | 71% | 1011.6 hPa | 0 mm | - | 55 W/m² | - |
| 1777334686 | 30.56° C | 71% | 1011.8 hPa | 0 mm | - | 62 W/m² | - |
| 1777334384 | 30.56° C | 71% | 1011.7 hPa | 0 mm | - | 67 W/m² | - |
| 1777334079 | 30.56° C | 71% | 1011.5 hPa | 0 mm | - | 61 W/m² | - |
| 1777333774 | 30.56° C | 70% | 1011.6 hPa | 0 mm | - | 65 W/m² | - |
| 1777333471 | 30.56° C | 70% | 1011.2 hPa | 0 mm | - | 94 W/m² | - |
| 1777333168 | 30.56° C | 69% | 1011.5 hPa | 0 mm | - | 90 W/m² | - |
| 1777332866 | 31.11° C | 70% | 1011.5 hPa | 0 mm | - | 118 W/m² | - |
| 1777332563 | 31.11° C | 69% | 1011.6 hPa | 0 mm | - | 105 W/m² | - |
| 1777332261 | 31.67° C | 67% | 1011.8 hPa | 0 mm | - | 112 W/m² | - |
| 1777331957 | 31.11° C | 68% | 1011.8 hPa | 0 mm | - | 167 W/m² | - |
| 1777331655 | 30.56° C | 68% | 1011.7 hPa | 0 mm | - | 101 W/m² | - |
| 1777331351 | 31.11° C | 68% | 1011.8 hPa | 0 mm | - | 91 W/m² | - |
| 1777331049 | 31.67° C | 67% | 1011.8 hPa | 0 mm | - | 115 W/m² | - |
| 1777330746 | 31.11° C | 68% | 1011.9 hPa | 0 mm | - | 115 W/m² | - |
| 1777330443 | 31.11° C | 68% | 1011.9 hPa | 0 mm | - | 239 W/m² | - |
| 1777330140 | 31.11° C | 68% | 1012 hPa | 0 mm | - | 142 W/m² | - |
| 1777329839 | 31.67° C | 66% | 1012 hPa | 0 mm | - | 146 W/m² | - |
| 1777329536 | 32.22° C | 65% | 1011.8 hPa | 0 mm | - | 267 W/m² | - |
| 1777329234 | 31.67° C | 67% | 1011.9 hPa | 0 mm | - | 311 W/m² | - |
| 1777328932 | 31.11° C | 69% | 1011.8 hPa | 0 mm | - | 312 W/m² | - |
| 1777328629 | 30.56° C | 69% | 1011.9 hPa | 0 mm | - | 259 W/m² | - |
* Rain latest hour (hover to see other rain measurements)
** Current wind speed in m/s (hover to see current wind gust speed)